Regional Weather Roundup
Issued by NWS

Home | Current Version | Previous Version | Text Only | Print | Product List | Glossary Off
Versions: 1 2 3 4 5 6 7 8 9 10 11 12 13 14 15 16 17 18 19 20 21 22 23 24 25 26 27 28 29 30 31 32 33 34 35 36 37 38 39 40 41 42 43 44 45 46 47 48 49 50

000
ASUS43 KLOT 071221
RWRIL

ILLINOIS REGIONAL WEATHER ROUNDUP
NATIONAL WEATHER SERVICE CHICAGO/ROMEOVILLE IL
700 AM CDT TUE JUL 07 2015

NOTE: "FAIR" INDICATES FEW OR NO CLOUDS BELOW 12,000 FEET WITH NO
SIGNIFICANT WEATHER AND/OR OBSTRUCTIONS TO VISIBILITY.

* THESE STATIONS ARE NOT UNDER NWS QUALITY CONTROL. THEY ALSO MAY NOT
  REPORT WEATHER SUCH AS PRECIPITATION OR FOG.

ILZ001-002-007-009-015-016-024-071300-
NORTHWEST ILLINOIS

CITY           SKY/WX    TMP DP  RH WIND       PRES   REMARKS
MOLINE         PTSUNNY   63  57  81 N8        29.98R HAZE
6HR MIN TEMP:  63; 6HR MAX TEMP:  66; 6HR PCP:  0.05;

STERLING*      CLOUDY    63  59  88 N9        29.97R
SAVANNA*         N/A     61  57  88 N8        29.98R FOG
$$

ILZ003-004-008-010-011-017-018-071300-
NORTH CENTRAL ILLINOIS

CITY           SKY/WX    TMP DP  RH WIND       PRES   REMARKS
ROCKFORD       CLOUDY    63  57  81 NE15      29.97R HAZE
6HR MIN TEMP:  62; 6HR MAX TEMP:  66; 6HR PCP: TRACE;

FREEPORT*      CLOUDY    60  57  89 N3        29.99S FOG
ROCHELLE*      CLOUDY    60  59  95 N12       29.95R FOG
DE KALB*       CLOUDY    58  57  96 NE9       29.96R
PERU*          CLOUDY    63  61  94 N10       29.93R FOG
$$

ILZ005-006-012>014-019>023-071300-
NORTHEAST ILLINOIS

CITY           SKY/WX    TMP DP  RH WIND       PRES   REMARKS
CHICAGO-OHARE  LGT RAIN  58  56  93 NE18      29.94R VSB 1
6HR MIN TEMP:  58; 6HR MAX TEMP:  71; 6HR PCP:  0.24;

CHICAGO-MIDWAY LGT RAIN  60  56  86 N17       29.94R FOG
6HR MIN TEMP:  61; 6HR MAX TEMP:  74; 6HR PCP:  0.20;

AURORA         CLOUDY    61  57  87 NE13      29.94R FOG
6HR MIN TEMP:  61; 6HR MAX TEMP:  71; 6HR PCP:  0.08;

LANSING*       LGT RAIN  59  56  90 N10G16    29.94R
JOLIET*        HVY RAIN  61  60  96 NE15      29.93R
WAUKEGAN       CLOUDY    57  55  93 N9G21     29.94R FOG
6HR MIN TEMP:  57; 6HR MAX TEMP:  71; 6HR PCP:  0.06;

DUPAGE AIRPORT LGT RAIN  60  58  92 NE12      29.94R FOG
6HR MIN TEMP:  59; 6HR MAX TEMP:  71; 6HR PCP:  0.22;

KANKAKEE*      RAIN      71  70  98 SW3       29.90R
WHEELING       LGT RAIN  58  55  90 N14       29.96R FOG
6HR MIN TEMP:  58; 6HR MAX TEMP:  72; 6HR PCP:  0.13;

MORRIS*        RAIN      60  59  95 NE9G16    29.91R
ROMEOVILLE*    HVY RAIN  59  59  97 NE18      29.93R
NORTHERLY ISL    N/A     58  56  93 N17         N/A
$$

LMZ740>746-071300-
SOUTHERN LAKE MICHIGAN

STATION/POSITION SKY/WX   TEMP    WIND        PRES    VSBY  WAVE
                          AIR SEA DIR/SP/G                  HT/PER
                          (F)     (DEG/KT/KT) (MB)    (MI)  (FT/S)
HARRISON CRIB              59     350/ 27/ 33   N/A
BURNHAM HARBOR             58     340/ 21/ 27   N/A
CALUMET HARBOR             60     340/ 14/ 22   N/A
BURNS HARBOR               62     360/ 20     1012.2R
MICHIGAN CITY              60     350/ 19/ 21   N/A
MICHIGAN CITY 6N           61 67   10/ 19/ 23   N/A           3/ 3
ST. JOSEPH                 61 65   30/ 16/ 17   N/A           3/ 2
$$

ILZ025>027-034>036-040-047-049-050-058-095>099-071300-
WEST-CENTRAL ILLINOIS

CITY           SKY/WX    TMP DP  RH WIND       PRES   REMARKS
QUINCY         LGT RAIN  63  61  93 N9        29.95R FOG
GALESBURG*     CLOUDY    62  59  91 N10       29.96R FOG
MACOMB*        LGT RAIN  62  62  99 N9        29.97R
JACKSONVILLE*  DRIZZLE   70  68  94 NW12      29.90R
PITTSFIELD*    LGT RAIN  66  64  93 N8        29.94R
$$

ILZ028>032-037-038-041>044-048-051>054-059>061-071300-
CENTRAL ILLINOIS

CITY           SKY/WX    TMP DP  RH WIND       PRES   REMARKS
PONTIAC        RAIN      68  68  99 N9        29.91R
BLOOMINGTON    CLOUDY    72  72 100 NW3       29.89F
DECATUR        LGT RAIN  72  70  93 SE3       29.88S
PEORIA         RAIN      65  61  87 N8G17     29.91S FOG
6HR MIN TEMP:  65; 6HR MAX TEMP:  74; 6HR PCP:  0.11;

LACON*         HVY RAIN  63  61  96 N9        29.92R
LINCOLN*       CLOUDY    73  71  95 CALM      29.87F
SPRINGFIELD    LGT RAIN  73  70  90 CALM      29.88S
6HR MIN TEMP:  72; 6HR MAX TEMP:  80; 6HR PCP:  0.66;

TAYLORVILLE    RAIN      70  70 100 CALM      29.89R
$$

ILZ033-039-045-046-055>057-062-063-071300-
EAST-CENTRAL ILLINOIS

CITY           SKY/WX    TMP DP  RH WIND       PRES   REMARKS
CHAMPAIGN      RAIN      72  70  93 W3        29.90S FOG
DANVILLE*      RAIN      73  71  95 W8G17     29.88R
RANTOUL*       LGT RAIN  74  72  95 W5        29.89F
MATTOON        CLOUDY    75  73  93 S6        29.89R
PARIS*         CLOUDY    76  73  92 SW8       29.90S FOG
$$

ILZ079-100>102-071300-
SOUTHWEST ILLINOIS

CITY           SKY/WX    TMP DP  RH WIND       PRES   REMARKS
ALTON          CLOUDY    73 N/A N/A SW9       29.91S
BELLEVILLE     CLOUDY    76  73  91 SW8       29.90R
CAHOKIA*       CLOUDY    76  70  82 W3        29.91R
SPARTA*        RAIN      74  70  87 SW6       29.94R
$$

ILZ064>066-069>071-074>076-080>082-084>086-088>090-092>094-071300-
SOUTH-CENTRAL ILLINOIS

CITY           SKY/WX    TMP DP  RH WIND       PRES   REMARKS
CARBONDALE     CLOUDY    77  73  87 SW10      29.94R
6HR MIN TEMP:  76; 6HR MAX TEMP:  78;

CAIRO*         CLOUDY    77  75  93 S10       29.97R
EFFINGHAM*     CLOUDY    76  71  85 S8        29.92S
MARION         CLOUDY    77  73  88 S8        29.95S
MT. VERNON     CLOUDY    77  70  78 SW9       29.93F
CENTRALIA*     CLOUDY    75  71  86 S7        29.92S
SALEM*         CLOUDY    78  73  83 S8        29.92S HX  80
$$

ILZ067-068-072-073-078-083-087-091-071300-
SOUTHEAST ILLINOIS

CITY           SKY/WX    TMP DP  RH WIND       PRES   REMARKS
LAWRENCEVILLE  CLOUDY    77  73  87 SW14      29.93R
FLORA*         PTSUNNY   76  73  90 S9        29.92S
FAIRFIELD*     CLOUDY    75  73  91 S8        29.92S
HARRISBURG*    LGT RAIN  75  75  98 SW8       29.96S
ROBINSON*      CLOUDY    76  73  89 SW10      29.93R
CARMI*         CLOUDY    75  69  82 S9        29.94S
$$

ABBREVIATIONS USED IN REMARKS
   TC - TEMPERATURE IN CELSIUS
  WCI - WIND CHILL INDEX
   HX - HEAT INDEX
  VSB - VISIBILITY
$$



USA.gov is the U.S. government's official web portal to all federal, state and local government web resources and services.